{"data":{"norad_id":69416,"intl_designator":"2026-125R","name":"QIANFAN-198","alt_names":[],"object_type":"PAYLOAD","status":"ACTIVE","operator":null,"country":"PRC","launch_date":"2026-06-05","launch_site_code":"WSC","launch_vehicle":null,"mission":null,"orbit_class":"UNKNOWN","rcs_meters":null,"size_class":null,"mass_kg":null,"dimensions":null,"purposes":[],"wikipedia_slug":null,"has_3d_model":false,"image_url":null,"decayed_at":null,"tle_current":{"epoch":"2026-09-20T03:24:42.642144Z","epoch_age_seconds":65962,"freshness":"FRESH","line1":"1 69416U 26125R   26263.14216021  .00000024  00000+0  18655-4 0  9992","line2":"2 69416  88.9873 270.3190 0002072 102.8067 257.3316 13.51028170 14783","mean_motion":13.5102817,"eccentricity":0.0002072,"inclination_deg":88.9873,"raan_deg":270.319,"arg_perigee_deg":102.8067,"mean_anomaly_deg":257.3316,"bstar":1.8655e-5,"rev_number":1478,"period_min":106.58549036768,"perigee_km":1066.9351329494,"apogee_km":1070.0210102351,"semimajor_km":7446.6150715923,"source":"CELESTRAK","updated_at":"2026-09-20T09:00:24.868865Z"}}}